Location: Seattle
(47.6064°N, 122.3308°W)
Time: 15:55:01
(UTC-08:00)

S-56A Canister/Altair - Pass Details

Date: 07 October 2022
Orbit: 638 x 2494 km, 38.9° (Epoch: 03 December)

Event Time Altitude Azimuth Distance (km) Brightness Sun altitude
Exits shadow 02:21:09 16° 104° (ESE) 3,052 10.6 -44.3°
Drops below altitude 10° 02:22:32 10° 100° (E) 3,415 11.0 -44.2°
Sets 02:25:05 0° 95° (E) 4,164 11.6 -43.9°
